Weather History for KPLN - December, 2012

Change the Weather History Date:

Sunday, December 9, 2012

  Actual Average Record
Temperature  
Mean Temperature 28 °F -  
Max Temperature 32 °F 31 °F 50 °F (1987)
Min Temperature 23 °F 18 °F -17 °F (1958)
Degree Days  
Heating Degree Days 38    
Moisture  
Dew Point 24 °F    
Average Humidity 84    
Maximum Humidity 93    
Minimum Humidity 76    
Precipitation  
Precipitation 0.06 in - - ()
Sea Level Pressure  
Sea Level Pressure 30.04 in    
Wind  
Wind Speed 7 mph (ENE)    
Max Wind Speed 21 mph    
Max Gust Speed 26 mph    
Visibility 5 miles    
Events Fog , Snow    
Averages and records for this station are not official NWS values.
T = Trace of Precipitation, MM = Missing Value Source: NWS Daily Summary

Daily Weather History Graph

Daily Weather History Graph

Search for Another Location

Airport or City:

Trip Planner

Search our weather history database for the weather conditions in past years. The results will help you decide how hot, cold, wet, or windy it might be!

Date:

Astronomy

Dec. 09, 2012 Rise Set
Actual Time 8:08 AM EST 4:55 PM EST
Civil Twilight 7:34 AM EST 5:29 PM EST
Nautical Twilight 6:56 AM EST 6:06 PM EST
Astronomical Twilight 6:20 AM EST 6:42 PM EST
Moon 3:30 AM EST (12/9) 2:09 PM EST (12/9)
Length of Visible Light 9h 55m
Length of Day
8h 47m
Waning Crescent, 19% of the Moon is Illuminated
Dec 9
Waning Crescent
Dec 13
New
Dec 20
First Quarter
Dec 28
Full
Jan 4
Last Quarter

Hourly Weather History & Observations

Time (EST) Temp. Windchill Dew Point Humidity Pressure Visibility Wind Dir Wind Speed Gust Speed Precip Events Conditions
12:54 AM 23.0 °F - 19.0 °F 85% 30.22 in 10.0 mi Calm Calm - N/A   Mostly Cloudy
1:36 AM 26.6 °F - 21.2 °F 80% 30.20 in 10.0 mi Calm Calm - N/A   Overcast
1:54 AM 26.1 °F - 21.9 °F 84% 30.25 in 10.0 mi Calm Calm - N/A   Overcast
2:34 AM 24.8 °F - 21.2 °F 86% 30.24 in 10.0 mi Calm Calm - N/A   Mostly Cloudy
2:54 AM 26.1 °F - 21.9 °F 84% 30.27 in 10.0 mi Calm Calm - N/A   Overcast
3:28 AM 26.6 °F - 21.2 °F 80% 30.24 in 10.0 mi Calm Calm - N/A   Overcast
3:54 AM 27.0 °F - 21.9 °F 81% 30.26 in 10.0 mi Calm Calm - N/A   Overcast
4:50 AM 26.6 °F - 21.2 °F 80% 30.23 in 10.0 mi Calm Calm - N/A   Scattered Clouds
4:54 AM 26.1 °F - 21.0 °F 81% 30.26 in 10.0 mi Calm Calm - N/A   Partly Cloudy
5:54 AM 23.0 °F - 19.9 °F 88% 30.26 in 10.0 mi Calm Calm - N/A   Partly Cloudy
6:54 AM 25.0 °F - 21.9 °F 88% 30.27 in 10.0 mi Calm Calm - N/A   Overcast
7:54 AM 28.9 °F 23.9 °F 23.0 °F 78% 30.25 in 10.0 mi ENE 4.6 mph - N/A   Overcast
8:54 AM 28.0 °F - 21.9 °F 78% 30.25 in 10.0 mi Calm Calm - N/A   Overcast
9:54 AM 30.9 °F 21.2 °F 24.1 °F 76% 30.24 in 10.0 mi East 12.7 mph 18.4 mph N/A   Mostly Cloudy
10:45 AM 30.2 °F 19.3 °F 26.6 °F 86% 30.21 in 10.0 mi East 15.0 mph 18.4 mph N/A   Overcast
10:54 AM 32.0 °F 21.6 °F 26.1 °F 79% 30.23 in 10.0 mi East 15.0 mph - N/A   Overcast
11:54 AM 32.0 °F 22.1 °F 26.1 °F 79% 30.19 in 10.0 mi East 13.8 mph - N/A   Overcast
12:54 PM 32.0 °F 23.6 °F 27.0 °F 82% 30.17 in 10.0 mi East 10.4 mph - N/A   Overcast
1:54 PM 32.0 °F 23.0 °F 27.0 °F 82% 30.14 in 10.0 mi East 11.5 mph - N/A   Overcast
2:01 PM 32.0 °F 23.0 °F 26.6 °F 80% 30.10 in 5.0 mi East 11.5 mph - 0.00 in Snow Light Snow
2:23 PM 30.2 °F 21.3 °F 26.6 °F 86% 30.08 in 2.0 mi East 10.4 mph - 0.00 in Snow Light Snow
2:29 PM 30.2 °F 20.2 °F 26.6 °F 86% 30.08 in 1.8 mi East 12.7 mph 21.9 mph 0.00 in Snow Light Snow
2:47 PM 30.2 °F 19.3 °F 26.6 °F 86% 30.06 in 0.8 mi East 15.0 mph 20.7 mph 0.00 in Snow Light Snow
2:54 PM 30.0 °F 19.5 °F 26.1 °F 85% 30.09 in 0.5 mi East 13.8 mph 21.9 mph 0.00 in Fog , Snow Light Snow
3:07 PM 30.2 °F 20.2 °F 26.6 °F 86% 30.05 in 1.0 mi East 12.7 mph 21.9 mph 0.00 in Snow Light Snow
3:17 PM 28.4 °F 17.5 °F 24.8 °F 86% 30.05 in 1.0 mi East 13.8 mph 21.9 mph 0.00 in Snow Light Snow
3:32 PM 28.4 °F 16.6 °F 24.8 °F 86% 30.03 in 0.8 mi East 16.1 mph 24.2 mph 0.00 in Snow Light Snow
3:45 PM 28.4 °F 16.6 °F 24.8 °F 86% 30.03 in 1.0 mi East 16.1 mph 26.5 mph 0.00 in Snow Light Snow
3:50 PM 28.4 °F 15.1 °F 24.8 °F 86% 30.02 in 0.8 mi East 20.7 mph 26.5 mph 0.00 in Snow Light Snow
3:54 PM 28.0 °F 15.3 °F 24.1 °F 85% 30.06 in 0.8 mi East 18.4 mph 26.5 mph 0.00 in Snow Light Snow
4:15 PM 28.4 °F 17.5 °F 24.8 °F 86% 30.02 in 1.0 mi East 13.8 mph 26.5 mph 0.01 in Snow Light Snow
4:41 PM 26.6 °F 13.8 °F 24.8 °F 93% 30.02 in 1.2 mi ENE 17.3 mph 23.0 mph 0.01 in Snow Light Snow
4:51 PM 26.6 °F 15.7 °F 23.0 °F 86% 30.02 in 0.8 mi East 12.7 mph 25.3 mph 0.01 in Snow Light Snow
4:54 PM 27.0 °F 14.7 °F 23.0 °F 85% 30.05 in 1.0 mi ENE 16.1 mph 23.0 mph 0.01 in Snow Light Snow
5:54 PM 27.0 °F 14.3 °F 24.1 °F 89% 30.01 in 0.8 mi East 17.3 mph 21.9 mph 0.01 in Snow Light Snow
6:13 PM 26.6 °F 14.7 °F 23.0 °F 86% 29.96 in 1.0 mi East 15.0 mph 20.7 mph 0.01 in Snow Light Snow
6:21 PM 26.6 °F 15.2 °F 23.0 °F 86% 29.96 in 1.5 mi East 13.8 mph 24.2 mph 0.01 in Snow Light Snow
6:31 PM 26.6 °F 16.2 °F 23.0 °F 86% 29.95 in 2.0 mi East 11.5 mph 21.9 mph 0.01 in Snow Light Snow
6:47 PM 26.6 °F 16.2 °F 23.0 °F 86% 29.93 in 1.8 mi East 11.5 mph - 0.01 in Snow Light Snow
6:54 PM 26.1 °F 14.5 °F 21.9 °F 84% 29.96 in 1.8 mi East 13.8 mph 21.9 mph 0.01 in Snow Light Snow
7:02 PM 26.6 °F 16.2 °F 21.2 °F 80% 29.93 in 2.0 mi East 11.5 mph - 0.00 in Snow Light Snow
7:19 PM 26.6 °F 15.7 °F 21.2 °F 80% 29.91 in 4.0 mi ENE 12.7 mph 20.7 mph 0.00 in Snow Light Snow
7:54 PM 26.1 °F 15.6 °F 23.0 °F 88% 29.92 in 7.0 mi East 11.5 mph - 0.00 in Snow Light Snow
8:54 PM 27.0 °F 16.7 °F 24.1 °F 89% 29.90 in 10.0 mi ENE 11.5 mph 19.6 mph 0.00 in   Overcast
9:54 PM 28.0 °F 18.6 °F 24.1 °F 85% 29.86 in 6.0 mi ENE 10.4 mph - 0.01 in Snow Light Snow
10:23 PM 28.4 °F 19.1 °F 24.8 °F 86% 29.81 in 3.0 mi ENE 10.4 mph - 0.01 in Snow Light Snow
10:33 PM 28.4 °F 18.5 °F 24.8 °F 86% 29.80 in 2.5 mi East 11.5 mph - 0.01 in Snow Light Snow
10:41 PM 28.4 °F 18.5 °F 24.8 °F 86% 29.80 in 2.0 mi ENE 11.5 mph - 0.01 in Snow Light Snow
10:49 PM 28.4 °F 18.0 °F 24.8 °F 86% 29.80 in 1.8 mi ENE 12.7 mph - 0.01 in Snow Light Snow
10:54 PM 28.0 °F 18.6 °F 24.1 °F 85% 29.83 in 2.0 mi ENE 10.4 mph - 0.01 in Snow Light Snow
11:16 PM 28.4 °F 20.4 °F 24.8 °F 86% 29.79 in 2.0 mi NE 8.1 mph - 0.00 in Snow Light Snow
11:25 PM 28.4 °F 20.4 °F 24.8 °F 86% 29.79 in 1.8 mi NE 8.1 mph - 0.00 in Snow Light Snow
11:38 PM 28.4 °F 21.2 °F 24.8 °F 86% 29.78 in 2.5 mi NNE 6.9 mph - 0.01 in Snow Light Snow
11:54 PM 28.0 °F 18.6 °F 25.0 °F 88% 29.80 in 2.5 mi NE 10.4 mph - 0.01 in Snow Light Snow
11:59 PM 28.4 °F 19.1 °F 24.8 °F 86% 29.76 in 3.0 mi NE 10.4 mph - 0.00 in Snow Light Snow